Regional Weather Roundup
Issued by NWS

Home | Current Version | Previous Version | Graphics & Text | Print | Product List | Glossary On
Versions: 1 2 3 4 5 6 7 8 9 10 11 12 13 14 15 16 17 18 19 20 21 22 23 24 25 26 27 28 29 30 31 32 33 34 35 36 37 38 39 40 41 42 43 44 45 46 47 48 49 50
000
ASUS44 KMEG 190400
RWRTN
TENNESSEE HOURLY STATE WEATHER ROUNDUP
NATIONAL WEATHER SERVICE MEMPHIS TN
1100 PM CDT THU SEP 18 2014

TNZ002-004-019-021-049-052-054-088>092-190500-
WEST TENNESSEE

CITY           SKY/WX    TMP DP  RH WIND       PRES   REMARKS
MEMPHIS INTL   PTCLDY    72  65  78 NE9       30.00R
NWS MEMPHIS      N/A     69 N/A N/A MISG        N/A
JACKSON        CLOUDY    68  62  81 CALM      30.03R
DYERSBURG      PTCLDY    64  54  68 NE3       30.03S
PARIS          PTCLDY    55  55 100 N3        30.04R
LEXINGTON      MOCLDY    63  61  94 CALM      30.02R
$$

TNZ008-025-027-028-033-062-065-066-190500-
NORTH MIDDLE TENNESSEE

CITY           SKY/WX    TMP DP  RH WIND       PRES   REMARKS
NASHVILLE      PTCLDY    65  60  84 NE6       30.04R
CLARKSVILLE    CLEAR     62  56  80 NE5       30.04S
COOKEVILLE     CLEAR     57  57 100 CALM      30.05S
CROSSVILLE     PTCLDY    60  55  83 NE3       30.09S
$$

TNZ061-075-076-078-094-096-097-190500-
SOUTH MIDDLE TENNESSEE

CITY           SKY/WX    TMP DP  RH WIND       PRES   REMARKS
FAYETTEVILLE   CLEAR     63  57  82 NE7       30.02S
WINCHESTER     CLEAR     61  57  88 CALM      30.03S
SHELBYVILLE    CLEAR     63  61  94 CALM      30.04R
$$

TNZ017-018-042-046-047-190500-
NORTHEAST TENNESSEE

CITY           SKY/WX    TMP DP  RH WIND       PRES   REMARKS
TRI CITIES     PTCLDY    60  53  77 CALM      30.08S
ELIZABETHTON   CLEAR     57  52  82 NE6       30.09S
$$

TNZ012-013-036-069-073-074-190500-
CENTRAL EAST TENNESSEE

CITY           SKY/WX    TMP DP  RH WIND       PRES   REMARKS
KNOXVILLE      PTCLDY    65  58  78 N7        30.04R
OAK RIDGE      CLEAR     62  59  90 CALM      30.07R
GATLINBURG     PTCLDY    59  57  94 CALM      30.05S
$$

TNZ083-085-099-190500-
SOUTHEAST TENNESSEE

CITY           SKY/WX    TMP DP  RH WIND       PRES   REMARKS
CHATTANOOGA    PTCLDY    68  60  75 CALM      30.03R
$$

SKY/WX REPORTED AS FAIR MEANS FEW OR NO CLOUDS BELOW
12 THOUSAND FEET.



USA.gov is the U.S. government's official web portal to all federal, state and local government web resources and services.